Regional Weather Roundup
Issued by NWS Northern Indiana

Home | Current Version | Previous Version | Text Only | Print | Product List | Glossary Off
Versions: 1 2 3 4 5 6 7 8 9 10 11 12 13 14 15 16 17 18 19 20 21 22 23 24 25 26 27 28 29 30 31 32 33 34 35 36 37 38 39 40 41 42 43 44 45 46 47 48 49 50

000
ASUS43 KIWX 071600
RWRIWX

KIWX WEATHER ROUNDUP
NATIONAL WEATHER SERVICE NORTHERN INDIANA
1200 PM EDT TUE JUL 07 2015

NOTE: "FAIR" INDICATES FEW OR NO CLOUDS BELOW 12,000 FEET WITH NO
SIGNIFICANT WEATHER AND/OR OBSTRUCTIONS TO VISIBILITY.

* THESE STATIONS ARE NOT UNDER NWS QUALITY CONTROL. THEY ALSO MAY NOT
  REPORT WEATHER SUCH AS PRECIPITATION OR FOG.

INZ001>027-071700-
NORTHERN INDIANA

CITY           SKY/WX    TMP DP  RH WIND       PRES   REMARKS
GARY*          CLOUDY    61  55  82 N14G30    30.00R
KNOX*          CLOUDY    59  59 100 N13       29.95R
SOUTH BEND     CLOUDY    62  61  96 N9        29.95R
GOSHEN         LGT RAIN  65  62  90 NW12      29.92R FOG
MONTICELLO*    DRIZZLE   63  63  99 N14       29.93R
ANGOLA*        PTSUNNY   73  64  73 W7        29.89S
FORT WAYNE     LGT RAIN  74  71  91 SW9       29.91S

$$
INZ028>050-071700-
CENTRAL INDIANA

CITY           SKY/WX    TMP DP  RH WIND       PRES   REMARKS
LAFAYETTE      LGT RAIN  64  63  96 N14       29.92R FOG
KOKOMO*        CLOUDY    73  70  88 W7        29.91S
MUNCIE*        CLOUDY    79  72  79 S12G21    29.91S
INDIANAPOLIS   CLOUDY    77  72  84 S13       29.90F

$$
MIZ043>046-050>051-056>058-064>065-071>073-077>080-071700-
SOUTHWEST LOWER MICHIGAN

CITY           SKY/WX    TMP DP  RH WIND       PRES   REMARKS
BATTLE CREEK   LGT RAIN  64  61  90 NW12      29.92R
BENTON HARBOR  CLOUDY    62  55  77 N10G18    29.95S
COLDWATER*     LGT RAIN  68  67  95 NW12      29.90R
HILLSDALE*     LGT RAIN  73  73 100 SW8       29.90R
HOLLAND        PTSUNNY   67  53  61 N12G18    29.95R
GRAND RAPIDS   CLOUDY    65  57  75 N9        29.93R
KALAMAZOO      CLOUDY    62  59  90 NW12      29.92R FOG
STURGIS*       RAIN      64  64 100 NW12      29.91R
THREE RIVERS*  DRIZZLE   64  63  94 NW9       29.92R

$$
OHZ001>008-015>018-024>025-071700-
NORTHWEST OHIO

CITY           SKY/WX    TMP DP  RH WIND       PRES   REMARKS
DEFIANCE       LGT RAIN  73  70  90 S7        29.90R
FINDLAY        CLOUDY    81  72  74 SW17G26   29.90S
TOLEDO EXPRESS RAIN      72  70  93 SW8       29.89S FOG
TOLEDO METCALF LGT RAIN  73  68  84 W17G30    29.90R
LIMA           CLOUDY    79  71  76 SW12      29.92F

$$
AND FOR LAKE MICHIGAN COASTAL AND OPEN LAKE BUOY OBSERVATIONS

STATION/POSITION TEMP    WIND        PRES    VSBY  WAVE
                 AIR SEA DIR/SP/G                  HT/PER
                 (F)     (DEG/KT/KT) (MB)    (MI)  (FT/S)
CALUMET HARBOR    59     350/ 14/ 19   N/A
MICHIGAN CITY     60     350/ 25/ 29   N/A
BURNS HARBOR      59     360/ 17/ 20 1015.2S
SAINT JOSEPH      61     350/ 15/ 20 1014.9R
4 MI NW BRIDGMAN  60 64   40/ 19/ 21   N/A           7/ 2
MICHIGAN CITY     59 65  360/ 16/ 19   N/A           7/ 6

$$
&&



USA.gov is the U.S. government's official web portal to all federal, state and local government web resources and services.